| time (UTC) | temp F | wind direction | speed MPH | gust MPH | rain 1hr in | rain 24hr in | rain mn in | humidity % | barometer mb |
| 20260901211546 | 63 | 97 | 0.0 | 0.0 | 0.00 | 0.27 | 0.27 | 97 | 1015.8 |
| 20260901210025 | 63 | 97 | 0.0 | 0.0 | 0.00 | 0.27 | 0.27 | 96 | 1015.8 |
| 20260901204505 | 63 | 136 | 0.0 | 0.0 | 0.00 | 0.27 | 0.27 | 96 | 1015.8 |
| 20260901203106 | 63 | 136 | 0.0 | 0.0 | 0.00 | 0.27 | 0.27 | 96 | 1015.6 |
| 20260901201551 | 63 | 136 | 0.0 | 0.0 | 0.00 | 0.27 | 0.27 | 96 | 1015.7 |
| 20260901200103 | 63 | 136 | 0.0 | 0.0 | 0.00 | 0.27 | 0.27 | 96 | 1015.5 |
| 20260901194544 | 63 | 142 | 0.0 | 0.0 | 0.00 | 0.27 | 0.27 | 96 | 1015.5 |
| 20260901193104 | 63 | 187 | 0.0 | 0.0 | 0.00 | 0.27 | 0.27 | 97 | 1015.5 |
| 20260901191545 | 63 | 234 | 0.0 | 0.0 | 0.00 | 0.27 | 0.27 | 97 | 1015.4 |
| 20260901190041 | 62 | 236 | 0.0 | 0.0 | 0.01 | 0.27 | 0.27 | 97 | 1015.6 |
| 20260901184536 | 62 | 149 | 0.0 | 0.0 | 0.01 | 0.27 | 0.27 | 97 | 1015.7 |
| 20260901183030 | 62 | 104 | 0.0 | 0.0 | 0.02 | 0.27 | 0.27 | 97 | 1015.8 |
| 20260901181554 | 62 | 105 | 0.0 | 0.0 | 0.02 | 0.27 | 0.27 | 97 | 1015.8 |
| 20260901180044 | 62 | 118 | 0.0 | 0.0 | 0.02 | 0.26 | 0.26 | 97 | 1015.8 |
| 20260901174533 | 63 | 119 | 0.0 | 0.0 | 0.02 | 0.26 | 0.26 | 97 | 1015.5 |
| 20260901173008 | 63 | 119 | 0.0 | 0.0 | 0.01 | 0.25 | 0.25 | 97 | 1015.4 |
| 20260901171554 | 63 | 119 | 0.0 | 0.0 | 0.01 | 0.25 | 0.25 | 97 | 1015.4 |
| 20260901170048 | 63 | 119 | 0.0 | 0.0 | 0.00 | 0.24 | 0.24 | 97 | 1015.3 |
| 20260901164536 | 63 | 119 | 0.0 | 0.0 | 0.02 | 0.24 | 0.24 | 97 | 1015.4 |
| 20260901163014 | 63 | 248 | 0.0 | 0.0 | 0.05 | 0.24 | 0.24 | 97 | 1015.3 |
| 20260901161556 | 63 | 257 | 0.0 | 0.0 | 0.07 | 0.24 | 0.24 | 97 | 1015.2 |
| 20260901160049 | 63 | 98 | 0.0 | 0.0 | 0.08 | 0.24 | 0.24 | 97 | 1014.2 |
| 20260901154513 | 63 | 83 | 0.0 | 0.0 | 0.05 | 0.21 | 0.21 | 97 | 1015.2 |
| 20260901153054 | 63 | 83 | 0.0 | 0.0 | 0.03 | 0.19 | 0.19 | 97 | 1015.4 |
| 20260901151600 | 63 | 90 | 0.0 | 0.0 | 0.01 | 0.17 | 0.17 | 97 | 1015.3 |
| 20260901150036 | 63 | 88 | 0.0 | 0.0 | 0.00 | 0.16 | 0.16 | 97 | 1015.3 |
| 20260901144510 | 63 | 117 | 0.0 | 0.0 | 0.00 | 0.16 | 0.16 | 98 | 1015.0 |
| 20260901143004 | 62 | 123 | 0.0 | 0.0 | 0.00 | 0.16 | 0.16 | 97 | 1015.2 |
| 20260901141507 | 62 | 163 | 0.0 | 0.0 | 0.00 | 0.16 | 0.16 | 98 | 1015.0 |
| 20260901140047 | 62 | 233 | 0.0 | 0.0 | 0.00 | 0.16 | 0.16 | 98 | 1015.6 |
| 20260901134554 | 62 | 233 | 0.0 | 0.0 | 0.00 | 0.16 | 0.16 | 97 | 1015.8 |
| 20260901133033 | 62 | 233 | 0.0 | 0.0 | 0.00 | 0.16 | 0.16 | 97 | 1015.9 |
| 20260901131632 | 62 | 233 | 0.0 | 0.0 | 0.00 | 0.16 | 0.16 | 97 | 1015.8 |
| 20260901130113 | 62 | 233 | 0.0 | 0.0 | 0.00 | 0.16 | 0.16 | 97 | 1016.0 |
| 20260901124558 | 62 | 233 | 0.0 | 0.0 | 0.01 | 0.16 | 0.16 | 98 | 1015.5 |
| 20260901123050 | 62 | 233 | 0.0 | 0.0 | 0.01 | 0.16 | 0.16 | 97 | 1015.8 |
| 20260901121529 | 62 | 233 | 0.0 | 0.0 | 0.03 | 0.16 | 0.16 | 97 | 1016.0 |
| 20260901120106 | 62 | 233 | 0.0 | 0.0 | 0.08 | 0.16 | 0.16 | 97 | 1016.0 |
| 20260901114612 | 62 | 233 | 0.0 | 0.0 | 0.10 | 0.15 | 0.15 | 97 | 1015.7 |
| 20260901113012 | 62 | 233 | 0.0 | 0.0 | 0.13 | 0.15 | 0.15 | 97 | 1015.9 |
| 20260901111552 | 62 | 233 | 0.0 | 0.0 | 0.11 | 0.12 | 0.13 | 97 | 1016.1 |
| 20260901110038 | 62 | 233 | 0.0 | 0.0 | 0.07 | 0.07 | 0.07 | 97 | 1015.6 |
| 20260901104534 | 62 | 233 | 0.0 | 0.0 | 0.05 | 0.05 | 0.05 | 97 | 1015.5 |
| 20260901103131 | 62 | 233 | 0.0 | 0.0 | 0.02 | 0.02 | 0.02 | 96 | 1015.6 |
| 20260901101617 | 62 | 233 | 0.0 | 0.0 | 0.01 | 0.01 | 0.01 | 96 | 1015.3 |
| 20260901100057 | 62 | 233 | 0.0 | 0.0 | 0.00 | 0.00 | 0.00 | 96 | 1015.3 |
| 20260901094548 | 63 | 233 | 0.0 | 0.0 | 0.00 | 0.00 | 0.00 | 95 | 1015.2 |
| 20260901093037 | 63 | 233 | 0.0 | 0.0 | 0.00 | 0.00 | 0.00 | 95 | 1015.2 |
| 20260901091544 | 63 | 233 | 0.0 | 0.0 | 0.00 | 0.00 | 0.00 | 96 | 1015.2 |
| 20260901090037 | 62 | 233 | 0.0 | 0.0 | 0.00 | 0.00 | 0.00 | 96 | 1015.4 |
| 20260901084543 | 62 | 233 | 0.0 | 0.0 | 0.00 | 0.00 | 0.00 | 96 | 1015.4 |
| 20260901083036 | 62 | 233 | 0.0 | 0.0 | 0.00 | 0.00 | 0.00 | 96 | 1015.3 |
| 20260901081534 | 62 | 233 | 0.0 | 0.0 | 0.00 | 0.00 | 0.00 | 96 | 1015.5 |
| 20260901080035 | 62 | 233 | 0.0 | 0.0 | 0.00 | 0.00 | 0.00 | 96 | 1015.5 |
| 20260901074611 | 62 | 233 | 0.0 | 0.0 | 0.00 | 0.00 | 0.00 | 96 | 1015.3 |
| 20260901073105 | 62 | 233 | 0.0 | 0.0 | 0.00 | 0.00 | 0.00 | 96 | 1015.2 |
| 20260901071553 | 62 | 233 | 0.0 | 0.0 | 0.00 | 0.00 | 0.00 | 95 | 1015.6 |
| 20260901070056 | 62 | 233 | 0.0 | 0.0 | 0.00 | 0.00 | 0.00 | 95 | 1015.7 |
| 20260901064550 | 62 | 233 | 0.0 | 0.0 | 0.00 | 0.00 | 0.00 | 96 | 1016.2 |
| 20260901063042 | 62 | 233 | 0.0 | 0.0 | 0.00 | 0.00 | 0.00 | 95 | 1016.3 |
| 20260901061556 | 62 | 233 | 0.0 | 0.0 | 0.00 | 0.00 | 0.00 | 95 | 1016.4 |
| 20260901060034 | 62 | 233 | 0.0 | 0.0 | 0.00 | 0.00 | 0.00 | 95 | 1016.4 |
| 20260901054527 | 62 | 233 | 0.0 | 0.0 | 0.00 | 0.00 | 0.00 | 95 | 1016.2 |
| 20260901053018 | 62 | 233 | 0.0 | 0.0 | 0.00 | 0.00 | 0.00 | 95 | 1016.5 |
| 20260901051554 | 62 | 233 | 0.0 | 0.0 | 0.00 | 0.00 | 0.00 | 95 | 1016.8 |
| 20260901044614 | 62 | 233 | 0.0 | 0.0 | 0.00 | 0.00 | 0.00 | 95 | 1016.5 |
| 20260901043056 | 62 | 233 | 0.0 | 0.0 | 0.00 | 0.00 | 0.00 | 94 | 1016.5 |
| 20260901041539 | 62 | 233 | 0.0 | 0.0 | 0.00 | 0.00 | 0.00 | 94 | 1016.7 |
| 20260901034532 | 63 | 233 | 0.0 | 0.0 | 0.00 | 0.00 | 0.00 | 93 | 1016.5 |
| 20260901033004 | 63 | 233 | 0.0 | 0.0 | 0.00 | 0.00 | 0.00 | 93 | 1016.7 |
| 20260901031605 | 63 | 233 | 0.0 | 0.0 | 0.00 | 0.00 | 0.00 | 93 | 1016.7 |
| 20260901030050 | 64 | 233 | 0.0 | 0.0 | 0.00 | 0.00 | 0.00 | 93 | 1016.8 |
| 20260901024547 | 63 | 233 | 0.0 | 0.0 | 0.00 | 0.00 | 0.00 | 94 | 1016.9 |
| 20260901023026 | 63 | 233 | 0.0 | 0.0 | 0.00 | 0.00 | 0.00 | 94 | 1017.0 |
| 20260901021508 | 63 | 233 | 0.0 | 0.0 | 0.00 | 0.00 | 0.00 | 94 | 1016.9 |
| 20260901020112 | 64 | 233 | 0.0 | 0.0 | 0.00 | 0.00 | 0.00 | 93 | 1016.9 |
| 20260901014502 | 64 | 233 | 0.0 | 0.0 | 0.00 | 0.00 | 0.00 | 93 | 1016.8 |
| 20260901013101 | 63 | 233 | 0.0 | 0.0 | 0.00 | 0.00 | 0.00 | 93 | 1016.9 |
| 20260901011540 | 64 | 233 | 0.0 | 0.0 | 0.00 | 0.00 | 0.00 | 93 | 1016.9 |
| 20260901010032 | 64 | 233 | 0.0 | 0.0 | 0.00 | 0.00 | 0.00 | 93 | 1016.9 |
| 20260901004506 | 64 | 233 | 0.0 | 0.0 | 0.00 | 0.00 | 0.00 | 92 | 1016.9 |
| 20260901003006 | 64 | 233 | 0.0 | 0.0 | 0.00 | 0.00 | 0.00 | 92 | 1016.9 |
| 20260901001630 | 64 | 233 | 0.0 | 0.0 | 0.00 | 0.00 | 0.00 | 91 | 1016.9 |
| 20260901000111 | 64 | 233 | 0.0 | 0.0 | 0.00 | 0.00 | 0.00 | 90 | 1016.9 |
| 20260831234557 | 65 | 233 | 0.0 | 0.0 | 0.00 | 0.00 | 0.00 | 90 | 1016.6 |
| 20260831233056 | 65 | 233 | 0.0 | 0.0 | 0.00 | 0.00 | 0.00 | 89 | 1016.8 |
| 20260831231542 | 65 | 233 | 0.0 | 0.0 | 0.00 | 0.00 | 0.00 | 89 | 1017.0 |
| 20260831230022 | 66 | 233 | 0.0 | 0.0 | 0.00 | 0.00 | 0.00 | 88 | 1017.2 |
| 20260831224602 | 66 | 233 | 0.0 | 0.0 | 0.00 | 0.00 | 0.00 | 87 | 1017.3 |
| 20260831223048 | 66 | 233 | 0.0 | 0.0 | 0.00 | 0.00 | 0.00 | 88 | 1017.3 |
| 20260831221532 | 66 | 233 | 0.0 | 0.0 | 0.00 | 0.00 | 0.00 | 87 | 1017.4 |
| 20260831220118 | 67 | 233 | 0.0 | 0.0 | 0.00 | 0.00 | 0.00 | 85 | 1017.2 |
| 20260831214600 | 68 | 233 | 0.0 | 0.0 | 0.00 | 0.00 | 0.00 | 83 | 1017.1 |
| 20260831213043 | 69 | 228 | 0.0 | 0.0 | 0.00 | 0.00 | 0.00 | 82 | 1017.0 |
| 20260831211603 | 68 | 243 | 0.0 | 0.0 | 0.00 | 0.00 | 0.00 | 84 | 1017.0 |